Temp
13 13 13 13 13 13 13 13 13 13 13 13 13 13 13 13 13 13 13 13 13 13 14 13 13 14 15 17 19 24 23 24 24 24 24 24 24 24 23 23 23 24 25 26 26 26 26
11 11 12 12 12 12 12 12 12 12 12 13 13 12 12 12 12 12 12 12 13 14 14 14 13 13 14 15 22 23 24 24 24 24 24 24 24 24 24 24 22 24 24 24 25 24 25
11 11 11 11 11 11 11 11 11 11 11 11 11 11 11 12 12 13 13 13 13 13 14 14 13 12 13 15 22 23 23 23 24 24 23 24 25 23 23 22 24 24 22 23 24 24 25
11 10 11 11 11 10 10 10 10 10 9 10 10 10 10 10 10 11 12 13 14 14 13 13 12 11 12 20 22 21 23 23 24 24 24 24 25 23 23 23 23 22 22 21 24 25 26
10 10 10 10 10 9 9 9 9 9 9 9 9 9 9 9 10 10 12 13 14 14 13 13 12 12 14 20 20 23 22 23 24 24 24 24 24 22 21 20 19 20 19 21 23 26 25
9 9 9 9 9 9 9 9 9 9 8 8 8 8 8 9 9 10 11 14 16 13 13 12 13 14 16 20 23 24 24 24 24 23 23 23 21 19 18 17 17 20 20 23 23 25 27
9 9 9 9 9 9 9 9 8 8 8 8 8 8 8 8 9 9 11 14 13 12 13 15 16 16 20 22 22 24 24 24 23 22 19 21 18 18 18 20 21 22 22 22 23 24 24
9 9 9 9 9 9 9 9 8 8 8 8 8 8 8 8 9 10 10 10 14 14 12 16 17 18 19 19 19 21 22 21 21 20 20 20 19 21 22 22 22 23 22 22 23 24 24
9 9 9 9 9 8 9 8 8 8 8 8 8 8 8 8 9 11 11 13 14 13 11 15 17 18 19 20 19 20 21 20 20 19 20 19 21 23 23 22 22 23 22 22 22 23 22
8 8 8 8 8 8 8 8 8 8 8 8 8 8 8 8 9 10 12 12 13 13 9 15 17 19 19 20 19 22 22 20 20 19 20 20 21 22 22 22 23 22 23 23 23 22 20
8 8 8 8 8 8 8 8 8 8 8 8 8 8 8 8 8 9 11 11 12 12 8 18 19 20 21 19 20 20 22 20 18 19 19 19 20 20 20 21 22 22 23 23 22 20 20
8 8 8 8 8 8 8 8 8 8 8 8 8 8 8 9 9 10 10 11 11 9 9 17 19 18 18 18 19 20 19 20 20 18 19 19 20 20 20 21 21 21 21 21 21 19 17
7 7 7 8 8 8 8 8 8 8 8 8 8 8 7 8 9 10 10 10 9 9 16 18 18 19 18 18 18 18 18 17 16 16 15 18 19 20 20 19 20 21 19 16 16 16 17
7 7 7 7 7 8 8 7 7 7 8 8 7 7 7 8 9 9 10 8 9 12 14 18 17 17 17 20 19 19 18 17 17 16 16 16 16 18 20 20 19 19 18 14 16 16 17
7 7 7 7 7 7 7 7 7 7 7 7 7 7 7 8 8 8 7 7 7 13 15 15 16 16 17 18 19 18 18 17 17 15 13 13 16 16 19 20 20 19 18 19 17 18 15
6 6 7 7 7 7 7 6 7 7 7 7 6 6 6 8 8 8 5 8 10 13 15 15 14 15 14 15 15 16 17 18 18 17 15 14 12 16 18 18 20 19 19 17 13 13 14
6 6 5 6 6 6 6 6 6 6 6 6 6 5 7 8 8 7 7 6 10 12 13 13 13 12 13 13 13 14 16 16 16 16 16 16 14 15 16 14 16 16 16 15 14 13 14
5 5 5 5 5 5 5 5 5 6 6 5 6 5 6 8 6 6 7 8 11 12 13 13 13 13 13 14 13 13 14 15 14 15 14 14 13 12 14 15 17 15 14 12 12 13 12
5 5 5 5 5 5 5 5 5 5 5 6 5 4 7 7 6 7 7 9 10 11 11 12 12 13 13 13 11 13 13 14 14 14 13 13 11 10 13 14 15 14 10 11 11 11 12
4 4 4 4 4 4 4 4 4 4 4 4 3 4 3 4 6 5 7 8 9 11 11 12 12 12 12 12 13 10 13 13 12 13 13 13 11 10 9 12 14 13 14 14 12 10 12
3 3 4 4 4 4 3 3 3 4 4 4 2 4 5 4 5 6 5 9 9 9 11 12 11 12 12 11 11 11 12 11 11 13 12 12 9 11 12 13 14 14 14 15 13 13 11
3 3 3 4 4 3 3 3 3 3 4 3 0 3 4 4 6 6 6 6 8 9 10 11 10 11 10 9 11 9 8 10 11 9 8 10 9 11 11 13 13 13 14 14 14 14 15
3 3 3 3 3 3 3 3 3 3 3 3 2 1 3 3 4 5 6 7 8 9 10 11 10 9 9 9 8 9 9 9 10 9 9 8 9 9 9 12 11 8 11 12 10 13 14
3 3 3 3 3 3 3 3 3 3 3 3 3 3 1 2 4 5 7 7 8 8 9 10 8 8 8 8 9 8 9 9 10 9 9 9 10 9 8 9 8 10 13 14 13 14 14
3 3 3 3 3 3 3 3 3 3 3 2 3 3 3 2 4 5 6 6 6 8 9 7 6 9 8 8 5 7 6 8 8 9 9 10 9 7 7 8 10 11 12 13 12 12 14
2 2 2 2 3 3 3 3 3 3 3 2 2 2 1 2 3 6 5 6 6 5 6 7 7 7 8 4 3 5 5 8 8 10 11 11 10 8 7 7 7 11 13 14 12 9 13
2 2 2 2 2 2 3 3 3 3 3 2 2 1 1 2 4 3 4 4 4 5 5 5 5 6 8 2 3 4 5 9 7 8 9 7 7 7 8 7 9 12 13 13 10 9 12
2 2 2 2 2 3 3 3 3 2 2 2 1 1 1 2 3 6 4 3 5 5 5 6 5 5 3 2 4 3 5 6 7 8 8 7 6 6 6 7 7 11 10 10 9 8 8
2 2 2 2 2 3 3 3 2 2 2 1 1 1 0 0 3 6 6 7 7 8 5 3 4 6 6 3 4 5 4 3 6 5 9 5 8 7 8 7 9 10 9 10 10 9 7
Height
826 829 828 830 831 831 832 833 832 831 832 831 832 831 828 827 825 824 824 822 818 816 814 813 810 806 802 800 785 775 774 774 773 773 773 771 774 773 779 773 769 766 760 752 749 747 748
824 826 827 829 830 830 831 829 830 829 829 829 828 829 827 825 823 820 820 820 818 814 812 810 809 806 805 802 774 772 771 773 770 770 769 769 770 768 769 770 775 760 758 755 750 751 748
820 824 824 826 827 828 828 829 827 826 826 826 824 825 825 822 820 817 816 816 814 813 810 808 807 806 805 780 773 769 768 767 767 768 766 765 765 769 768 773 761 760 767 760 753 750 751
817 820 821 823 824 826 827 826 823 824 824 824 823 821 822 820 818 814 812 810 808 808 806 806 804 806 794 770 768 765 764 762 763 763 763 764 763 764 767 766 766 772 768 778 748 746 739
816 817 819 821 821 824 823 825 823 822 822 822 820 822 819 818 815 814 808 807 804 802 802 802 802 803 787 765 764 758 760 759 759 758 758 760 761 766 771 780 786 775 788 775 758 734 736
814 815 817 819 819 822 822 821 821 822 822 819 819 819 819 816 814 811 807 802 797 797 799 802 799 803 778 764 759 757 753 756 757 755 755 757 766 777 780 788 795 780 777 761 760 739 728
810 815 816 818 820 818 819 819 819 820 820 819 818 818 816 814 813 811 804 800 797 797 798 788 784 777 763 760 759 757 756 754 754 758 771 761 778 782 774 769 763 762 762 759 748 734 738
810 812 810 815 816 817 816 817 818 817 817 818 817 816 814 814 811 808 808 805 801 804 796 782 776 769 765 764 765 755 757 762 758 765 763 769 767 758 757 754 755 754 757 755 741 732 735
805 807 809 809 812 813 814 816 815 816 815 815 816 817 815 812 809 806 805 805 802 798 799 776 764 755 755 758 752 755 756 755 761 764 760 765 751 744 748 750 752 747 754 752 748 739 736
801 803 803 806 807 809 811 813 814 813 815 814 813 815 815 811 810 805 806 804 801 800 806 770 753 745 746 748 751 742 744 751 754 758 761 751 743 743 744 743 741 747 736 737 739 748 761
797 797 798 801 802 805 807 810 811 811 811 813 813 814 813 813 810 808 809 805 803 802 835 749 744 739 739 746 741 740 737 745 752 753 762 735 745 746 744 741 736 740 728 733 739 750 753
793 794 795 797 798 801 803 805 807 809 808 809 810 812 811 812 813 808 806 805 805 818 812 753 741 745 748 747 744 741 743 742 744 748 748 735 739 739 737 733 736 731 733 736 739 750 770
787 790 793 793 794 797 799 801 802 805 806 806 809 808 811 808 809 809 807 806 819 813 761 750 742 740 744 745 746 746 750 755 760 765 760 743 737 730 735 743 734 735 747 770 773 771 762
783 786 789 790 794 794 795 796 798 801 802 803 806 807 805 806 807 809 808 813 811 775 767 743 747 748 751 738 739 741 745 752 751 755 756 750 750 730 724 730 736 738 746 772 767 766 759
781 783 784 786 790 791 793 793 796 798 798 801 802 804 802 802 805 807 812 814 804 773 764 761 753 755 751 742 741 742 741 746 745 758 774 773 744 736 723 718 724 734 744 736 756 749 768
777 781 782 782 785 789 790 790 791 794 796 796 800 801 796 799 802 806 813 800 783 766 763 760 767 758 760 757 755 751 745 734 739 742 746 760 769 741 732 727 718 726 727 749 767 775 769
775 777 779 780 782 785 786 787 789 791 793 795 798 797 787 791 798 800 794 797 778 769 769 768 766 768 765 765 763 761 750 745 743 747 749 752 760 746 742 754 741 738 739 749 760 770 762
770 773 774 776 779 781 783 784 787 788 792 793 794 797 787 788 795 789 784 781 772 765 765 765 764 764 761 758 759 760 756 752 751 753 757 756 757 761 749 741 734 745 752 767 767 756 758
767 770 772 772 775 777 780 782 784 785 788 792 790 789 786 786 780 782 777 773 770 768 765 765 763 761 759 760 768 754 755 754 752 756 759 762 769 775 751 743 737 751 774 770 769 771 763
764 766 768 769 773 774 777 780 781 783 785 789 793 786 785 783 778 781 769 764 764 759 760 761 760 761 760 758 759 768 756 754 756 755 757 761 771 774 786 761 750 756 756 753 756 777 761
762 763 764 766 770 772 775 777 778 780 783 787 788 782 777 778 773 771 773 758 758 758 754 755 755 754 756 759 759 756 756 757 758 754 759 762 772 766 762 754 750 746 745 744 751 748 759
758 758 761 764 766 769 772 773 775 777 780 784 787 784 779 773 764 765 764 762 758 751 753 749 753 750 758 763 751 767 773 765 758 766 773 769 771 757 760 751 748 745 740 735 735 736 735
754 756 758 760 763 765 768 770 772 774 777 777 780 781 783 774 774 767 756 753 751 752 748 743 748 754 757 757 761 762 766 771 767 768 772 779 765 771 766 752 752 776 744 742 747 736 738
751 753 755 757 760 762 764 766 767 769 772 774 776 779 782 771 770 764 755 752 749 745 744 739 748 754 754 755 758 761 762 763 763 764 768 767 762 768 771 763 776 748 733 731 734 730 727
749 751 753 755 757 758 760 761 763 764 767 769 772 775 776 767 765 756 747 743 740 736 737 743 752 745 747 751 768 768 771 762 759 756 760 758 767 773 774 766 752 743 727 736 738 736 726
747 748 750 751 753 754 755 756 757 759 760 764 766 770 772 769 754 749 749 741 736 734 741 741 742 741 744 761 774 775 775 758 756 742 740 743 750 762 773 769 767 731 727 729 736 753 726
744 746 747 748 749 750 751 752 753 754 756 759 761 763 766 760 751 751 746 743 737 736 739 739 745 748 743 765 773 773 770 750 761 752 750 757 762 764 757 764 745 727 730 729 746 744 724
741 742 743 744 745 746 747 748 750 752 754 756 756 757 758 753 747 744 745 744 737 736 735 733 744 750 759 771 767 772 761 754 754 748 748 757 764 763 764 759 758 730 733 739 738 733 733
739 740 741 742 743 744 745 746 748 750 752 753 753 750 752 753 745 742 739 737 734 730 736 745 747 742 745 760 760 753 757 761 748 759 739 761 750 756 752 754 735 732 734 730 732 730 728
Wind_Speed
12 12 10 10 10 11 11 11 10 10 12 12 14 15 16 18 19 20 22 23 22 23 24 25 24 24 17 5 10 25 17 9 8 10 13 8 9 7 7 7 10 6 9 10 9 9 7
8 8 8 9 10 11 12 11 12 12 13 15 16 18 19 19 19 20 22 24 24 24 23 22 22 21 5 10 13 15 10 13 10 11 17 14 7 9 5 7 6 7 10 12 7 11 7
9 10 10 11 12 13 12 13 11 11 11 13 13 15 16 17 19 20 21 24 24 26 24 21 17 12 5 22 19 23 25 22 18 20 7 21 14 5 6 8 10 9 8 10 13 9 10
11 12 11 12 12 12 11 9 8 8 10 11 12 12 15 16 17 19 21 22 22 22 21 19 13 4 9 19 22 24 22 26 25 22 18 20 16 6 4 6 10 10 6 6 15 15 18
9 10 11 12 12 12 9 8 7 7 8 10 11 13 13 15 16 19 19 21 22 19 20 16 6 6 11 17 12 17 20 19 19 23 26 24 14 4 6 5 5 7 6 11 16 18 11
11 11 10 10 10 11 11 8 7 8 9 9 11 12 14 15 17 19 21 21 20 21 11 6 7 4 9 7 7 9 8 17 5 8 6 7 2 3 4 5 7 6 7 11 9 8 5
12 13 11 11 11 9 9 9 8 8 8 9 11 12 13 14 16 18 19 10 4 1 5 8 7 6 12 11 26 5 9 11 6 6 6 6 5 12 14 13 14 17 18 17 8 9 4
14 14 14 15 14 12 11 11 9 8 8 9 10 11 12 14 15 14 13 4 5 5 9 15 20 21 33 30 17 22 24 8 5 13 7 9 17 16 16 17 18 18 15 14 6 8 8
16 15 16 15 16 15 14 13 12 11 10 9 9 11 12 13 16 10 6 9 10 12 5 9 16 14 15 21 24 21 11 11 13 15 11 17 10 14 19 20 19 19 11 10 7 6 9
17 16 16 17 17 16 16 15 14 12 12 11 10 10 11 17 8 12 2 10 8 7 4 6 9 8 13 9 15 19 21 16 14 20 12 16 12 20 21 19 20 21 8 10 8 6 9
18 17 18 17 16 15 15 15 15 13 11 11 11 11 9 10 13 6 10 13 9 3 4 7 3 2 4 7 2 4 8 5 15 18 9 27 13 14 17 15 10 16 9 12 10 6 5
19 18 17 16 15 15 15 15 15 14 13 12 11 11 9 7 7 10 12 11 4 3 8 5 5 5 2 6 6 1 1 2 2 4 16 28 12 10 4 11 8 7 3 5 4 1 6
17 16 17 16 16 16 16 16 16 16 16 16 14 12 13 7 4 7 13 5 2 5 6 5 7 4 10 8 6 7 7 4 3 2 6 15 23 22 10 9 14 3 3 2 3 3 11
15 15 14 13 12 12 13 13 14 15 14 14 16 14 17 17 14 9 7 2 8 8 16 16 18 21 13 8 2 9 6 9 4 6 6 5 6 15 13 20 8 10 7 5 6 6 6
15 16 15 14 14 13 12 12 12 13 12 12 11 13 19 23 15 11 1 6 8 8 8 12 15 15 13 12 8 6 5 5 8 9 5 6 5 13 17 10 14 10 8 7 8 13 1
15 15 14 14 14 13 12 11 12 13 12 13 12 7 17 15 15 15 3 12 9 12 14 16 17 13 9 13 13 11 7 2 4 2 7 7 7 3 9 11 3 4 6 7 3 3 6
15 15 15 15 16 16 15 14 14 12 12 12 7 3 9 19 18 5 7 9 12 18 15 7 11 12 13 9 12 15 6 9 9 5 4 1 2 6 4 4 6 4 2 5 4 4 4
16 16 14 14 14 13 12 12 11 12 10 11 4 3 7 13 8 3 8 6 10 17 12 12 12 13 13 14 14 10 12 4 7 5 3 5 3 5 6 4 8 2 4 3 2 1 3
14 15 16 16 15 14 13 12 11 9 8 5 3 2 11 6 9 11 8 14 11 15 16 9 10 13 14 11 8 11 9 3 6 4 3 5 4 4 8 2 1 4 4 3 3 2 2
14 15 15 15 14 12 12 12 9 8 7 5 1 3 3 3 5 9 18 17 17 15 19 17 16 16 16 12 12 5 7 4 4 4 7 6 1 3 5 8 6 5 7 7 6 3 3
15 16 16 16 14 12 11 11 10 9 7 3 2 3 3 3 7 8 10 6 16 18 16 15 15 19 17 13 10 10 10 5 1 4 4 4 6 8 15 17 12 14 14 12 7 7 5
13 14 16 16 16 13 11 10 10 9 8 6 3 3 2 6 9 9 12 11 19 19 14 14 17 11 11 14 5 5 7 2 3 6 5 6 6 5 9 13 15 15 13 15 11 8 13
12 12 12 13 14 13 12 12 12 11 10 5 2 2 1 6 6 8 13 18 22 20 19 16 10 2 9 7 6 6 5 5 4 0 3 5 4 5 8 6 7 5 11 8 6 6 8
10 10 10 12 13 13 13 14 15 16 15 16 8 3 2 10 7 11 15 16 24 25 25 12 6 8 4 7 4 3 5 4 5 5 5 8 4 3 3 2 3 8 9 10 11 14 12
11 11 11 12 12 14 16 16 17 18 18 19 15 7 3 8 9 16 20 21 16 25 22 8 11 12 10 6 3 1 2 2 7 11 11 10 11 3 2 3 10 15 19 4 13 17 19
11 10 11 12 14 15 14 14 14 16 17 18 17 17 2 6 12 14 6 8 9 6 10 7 8 6 5 3 3 4 3 4 4 4 17 14 13 7 2 5 10 20 11 9 6 9 5
11 11 12 13 14 14 13 12 12 12 12 17 10 21 6 4 3 2 3 3 4 1 2 5 5 1 1 2 3 3 4 2 3 3 3 0 2 8 12 7 11 9 9 15 15 10 9
10 10 10 10 10 11 12 11 10 11 11 13 8 19 10 3 4 4 3 4 3 2 2 4 4 1 1 2 3 4 4 5 5 4 3 4 3 2 2 6 13 8 12 6 3 4 7
8 8 7 7 6 6 6 8 11 9 8 9 4 8 16 4 3 9 15 12 12 6 4 2 2 1 2 2 2 3 1 1 4 2 2 3 4 2 4 5 6 5 11 15 8 7 4
Wind_Direction
228 238 237 243 249 257 263 270 273 278 283 286 291 293 299 300 302 305 305 307 308 308 313 318 324 334 344 320 257 280 278 285 307 299 269 279 301 298 277 314 333 307 307 318 328 337 313
221 237 250 259 262 268 269 267 273 279 280 283 286 290 295 297 300 302 303 304 305 305 307 314 320 333 316 267 265 278 270 271 265 275 292 294 273 287 284 283 284 282 307 310 318 301 295
248 259 264 262 270 271 271 274 279 281 282 285 289 294 297 298 299 300 299 300 303 303 304 305 311 333 265 249 273 277 283 277 275 275 261 274 285 343 318 322 285 308 318 303 288 273 268
245 253 260 266 266 264 276 277 276 283 295 299 301 301 303 304 307 306 302 300 300 302 302 300 302 298 247 274 274 272 272 281 280 278 248 268 284 285 241 278 299 297 290 273 268 250 254
242 246 251 258 252 259 264 284 286 297 298 304 308 307 308 309 314 312 307 300 295 295 291 297 297 201 266 295 246 264 249 252 261 255 245 247 248 196 312 262 292 243 253 257 271 257 240
238 240 240 243 241 255 267 271 288 302 306 312 309 307 310 314 316 317 313 302 296 284 290 273 252 323 259 261 255 307 262 231 271 303 278 196 196 177 263 192 229 236 232 253 251 284 309
230 242 241 241 244 250 264 269 275 291 306 318 320 312 312 317 318 321 326 337 19 23 232 216 197 240 297 274 312 305 282 263 253 267 265 224 190 224 236 229 239 244 255 264 274 283 356
240 250 245 245 246 254 257 263 269 277 290 308 322 320 320 319 315 313 310 277 22 323 291 265 268 256 260 271 284 277 282 292 274 228 236 261 240 221 236 250 254 256 262 268 264 293 292
245 248 249 246 252 254 255 260 263 273 277 287 308 318 320 322 320 310 252 292 348 360 274 238 238 244 240 235 248 255 253 262 257 265 233 238 237 230 230 242 254 262 266 274 245 290 292
246 248 249 252 253 254 254 256 260 265 272 276 286 302 317 327 318 330 321 342 0 4 291 266 221 254 229 227 274 251 231 235 248 254 266 258 244 245 257 259 238 254 233 282 269 249 261
250 249 247 248 246 253 250 254 260 259 260 271 275 284 305 324 313 333 359 331 338 336 326 271 56 104 62 181 49 33 220 247 254 256 242 248 281 275 269 275 286 279 228 250 266 273 316
252 251 246 244 243 242 245 249 253 255 254 259 261 266 280 316 301 332 330 325 345 55 248 278 129 170 181 235 256 265 16 357 327 298 232 259 270 265 267 306 315 339 5 339 308 157 265
250 246 248 246 243 246 250 253 253 252 255 255 256 253 250 250 248 353 339 338 74 207 265 235 210 178 193 231 230 226 232 215 213 217 241 260 251 258 261 295 292 251 41 3 283 210 251
246 243 243 240 245 244 247 249 252 253 253 256 248 250 244 246 256 285 311 29 225 235 235 306 309 313 303 295 210 208 224 272 253 315 311 223 290 219 218 221 204 219 158 186 220 235 264
242 236 237 239 241 240 242 247 250 251 255 254 238 237 242 246 253 259 170 214 210 232 261 289 295 284 290 285 274 273 242 203 185 168 198 328 286 339 320 270 204 240 216 213 254 268 257
237 235 233 233 235 238 241 245 239 247 247 240 218 223 244 243 233 234 182 229 239 249 276 293 286 295 315 320 317 310 282 286 310 110 157 181 270 271 312 356 321 182 196 231 56 219 240
225 239 245 244 245 248 248 252 253 248 241 235 202 237 273 240 220 210 207 225 239 258 278 301 292 307 308 292 307 318 340 348 26 107 211 218 212 281 350 272 293 326 57 56 115 206 214
237 243 242 241 242 245 248 248 257 254 249 222 209 231 246 219 214 237 217 206 229 259 273 272 282 290 295 278 280 295 310 338 9 14 335 349 189 281 207 270 313 103 329 66 249 283 159
235 238 242 240 240 239 246 251 254 253 231 226 240 262 238 232 224 222 226 229 245 258 265 272 267 273 283 272 288 259 294 55 80 27 14 351 319 321 327 45 13 32 68 287 331 177 235
242 240 242 236 234 241 241 243 245 246 237 212 164 259 228 193 232 252 222 221 233 238 251 249 264 276 276 271 265 270 254 202 184 185 142 103 306 260 254 305 318 265 200 228 159 177 253
241 240 237 233 231 229 232 236 239 242 246 191 205 253 256 216 229 225 251 244 224 246 245 260 255 244 254 265 260 237 271 117 205 220 219 198 223 213 244 279 282 289 286 277 239 234 208
244 244 238 235 236 233 234 240 242 241 235 203 179 212 268 289 268 218 223 226 249 255 240 250 246 253 252 263 248 305 355 27 66 7 355 332 267 237 269 275 286 289 286 283 296 286 285
234 235 233 233 234 235 238 244 247 245 226 221 158 296 304 275 301 274 241 242 238 236 246 261 276 206 252 244 112 144 171 289 295 359 206 260 205 222 255 271 308 320 260 274 282 267 262
238 233 236 240 239 239 246 249 249 250 232 227 216 188 212 270 258 258 267 264 260 241 242 237 193 190 199 131 102 134 183 229 265 277 263 288 292 274 243 312 249 244 239 246 254 262 268
244 242 243 246 247 247 250 250 250 249 242 225 227 205 236 264 262 272 271 255 277 232 225 200 233 205 152 119 82 119 282 227 223 234 226 223 270 251 187 245 283 297 275 349 307 296 291
240 242 248 251 250 252 253 254 253 250 247 222 223 211 190 273 260 253 311 283 249 198 222 185 128 147 124 114 108 162 199 215 233 225 223 223 225 226 268 223 254 256 304 281 339 288 29
240 244 252 255 259 256 256 253 250 246 225 204 224 217 195 241 238 313 261 311 322 161 235 127 132 276 223 114 128 157 219 233 240 218 269 308 10 246 242 239 255 306 304 276 288 273 271
251 252 246 253 254 250 246 241 224 210 205 212 226 217 204 230 257 223 261 274 235 189 148 131 92 234 51 103 138 212 185 203 203 223 255 215 193 176 300 235 265 1 358 314 265 300 336
239 235 236 239 242 235 223 205 194 196 183 182 243 217 225 253 254 284 281 290 302 29 120 105 70 79 125 119 222 216 251 112 140 239 121 278 173 245 251 223 222 251 234 267 289 283 304